Weather History for Whiteman AFB, MO

Change the Weather History Date:

Thursday, January 3, 2013

  Actual Average Record
Temperature  
Mean Temperature 27 °F -  
Max Temperature 37 °F 37 °F 71 °F (1997)
Min Temperature 17 °F 21 °F -1 °F (2014)
Degree Days  
Heating Degree Days 38    
Moisture  
Dew Point 24 °F    
Average Humidity 85    
Maximum Humidity 99    
Minimum Humidity 61    
Precipitation  
Precipitation 0.00 in - - ()
Sea Level Pressure  
Sea Level Pressure 30.38 in    
Wind  
Wind Speed 5 mph (West)    
Max Wind Speed 10 mph    
Max Gust Speed -    
Visibility 10 miles    
Events      
Averages and records for this station are not official NWS values.
T = Trace of Precipitation, MM = Missing Value Source: NWS Daily Summary

Daily Weather History Graph

Daily Weather History Graph

Search for Another Location

Airport:

Trip Planner

Search our weather history database for the weather conditions in past years. The results will help you decide how hot, cold, wet, or windy it might be!

Date:

Astronomy

Jan. 03, 2013 Rise Set
Actual Time 7:32 AM CST 5:05 PM CST
Civil Twilight 7:02 AM CST 5:35 PM CST
Nautical Twilight 6:29 AM CST 6:08 PM CST
Astronomical Twilight 5:57 AM CST 6:40 PM CST
Moon 11:36 PM CST (1/3) 10:48 AM CST (1/3)
Length of Visible Light 10h 32m
Length of Day
9h 32m
Waning Gibbous, 65% of the Moon is Illuminated
Jan 3
Waning Gibbous
Jan 4
Last Quarter
Jan 11
New
Jan 18
First Quarter
Jan 26
Full

Hourly Weather History & Observations

Time (CST) Temp. Windchill Dew Point Humidity Pressure Visibility Wind Dir Wind Speed Gust Speed Precip Events Conditions
12:55 AM 25.2 °F 19.5 °F 22.8 °F 91% 30.27 in 10.0 mi West 4.6 mph - N/A   Overcast
1:55 AM 26.6 °F 22.6 °F 24.3 °F 91% 30.28 in 10.0 mi WSW 3.5 mph - N/A   Overcast
2:55 AM 27.5 °F 22.2 °F 25.5 °F 92% 30.30 in 10.0 mi West 4.6 mph - N/A   Overcast
3:55 AM 23.9 °F 16.8 °F 23.4 °F 98% 30.30 in 10.0 mi West 5.8 mph - N/A   Clear
4:55 AM 23.4 °F 17.4 °F 23.2 °F 99% 30.31 in 10.0 mi West 4.6 mph - N/A   Clear
5:55 AM 17.4 °F 10.4 °F 17.2 °F 99% 30.33 in 8.0 mi WSW 4.6 mph - N/A   Clear
6:55 AM 18.9 °F 10.8 °F 18.7 °F 99% 30.35 in 10.0 mi WSW 5.8 mph - N/A   Clear
7:55 AM 22.5 °F 13.2 °F 22.3 °F 99% 30.37 in 10.0 mi WSW 8.1 mph - N/A   Mostly Cloudy
8:55 AM 26.1 °F 18.4 °F 25.9 °F 99% 30.39 in 10.0 mi NNW 6.9 mph - N/A   Overcast
9:55 AM 30.0 °F 25.2 °F 27.5 °F 90% 30.41 in 10.0 mi West 4.6 mph - N/A   Partly Cloudy
10:55 AM 34.3 °F 26.5 °F 28.2 °F 78% 30.42 in 10.0 mi WNW 10.4 mph - N/A   Partly Cloudy
11:55 AM 36.5 °F 29.7 °F 28.6 °F 73% 30.40 in 10.0 mi West 9.2 mph - N/A   Clear
12:55 PM 37.4 °F 33.8 °F 28.0 °F 69% 30.38 in 10.0 mi WNW 4.6 mph - N/A   Mostly Cloudy
1:55 PM 37.4 °F 30.3 °F 27.9 °F 68% 30.37 in 10.0 mi West 10.4 mph - N/A   Mostly Cloudy
2:55 PM 37.8 °F 31.3 °F 25.5 °F 61% 30.37 in 10.0 mi West 9.2 mph - N/A   Mostly Cloudy
3:55 PM 36.7 °F 29.9 °F 25.0 °F 63% 30.38 in 10.0 mi WNW 9.2 mph - N/A   Overcast
4:55 PM 34.5 °F 28.6 °F 26.6 °F 73% 30.40 in 10.0 mi NNW 6.9 mph - N/A   Overcast
5:55 PM 33.3 °F 26.4 °F 26.4 °F 76% 30.42 in 10.0 mi NNW 8.1 mph - N/A   Overcast
6:55 PM 32.0 °F 26.4 °F 24.4 °F 74% 30.44 in 10.0 mi NW 5.8 mph - N/A   Overcast
7:55 PM 28.8 °F 23.7 °F 23.4 °F 80% 30.44 in 10.0 mi NNW 4.6 mph - N/A   Scattered Clouds
8:55 PM 25.7 °F - 22.5 °F 88% 30.44 in 10.0 mi Calm Calm - N/A   Clear
9:55 PM 23.9 °F - 21.9 °F 92% 30.43 in 10.0 mi Calm Calm - N/A   Clear
10:55 PM 21.0 °F 16.2 °F 20.8 °F 99% 30.43 in 10.0 mi SW 3.5 mph - N/A   Clear
11:55 PM 20.5 °F - 20.3 °F 99% 30.43 in 10.0 mi Calm Calm - N/A   Clear